Showing default

DUMMY CUBESAT, 52983

Orbit data source: Space-Track

DUMMY CUBESAT, 52983 is a payload satellite owned by KARI (KR) in SSO that was launched on Tue, 21 Jun 2022 UTC via an NURI launch vehicle from the Naro Space Center, South Korea (NSC). Payload-class satellites include a variety of spacecraft equipped with specific instruments for various scientific and technological missions. These include communications satellites like Starlink; space stations such as the ISS; scientific satellites like the Hubble; Earth observation satellites from companies like Planet Labs, Umbra, and HawkEye 360; GPS; miniature CubeSats for education and research; and military/defense satellites.

Loading next visibility...
Identifier
52983, 2022-065H
Orbit
SSO
Country
Flag of KRKR / SKOR
Related business
Manufacturer
KARI
Mission
Non-operational Civil Technology
Bus & Motor
Unknown
Mass
1 kg wet, 1 kg dry
Launch date (UTC)
2022-06-21 (4 years ago)
Launch vehicle
NURI
Launch site
Naro Space Center, South Korea (NSC)
Object type
Payload
Rocket body
Debris
Shape & HBR
Box, 0.1 m
Radar Cross Section
0.015 m², Medium (>0.1 m² and < 1m²)

Expand to show TLE details & history
Last TLE update: 2 days ago

TLE from 2 days ago
0 DUMMY CUBESAT
1 52983U 22065H   26171.32157197  .00000257  00000-0  62454-4 0  9993
2 52983  98.2288 312.4381 0008013  23.7902 336.3667 14.60598681210604
Epoch: 2026-06-20T07:43Z
TLE epoch observation values (Epoch: 2026-06-20T07:43:03.818Z)
Latitude
-0.00003°
Longitude
-71.86567°
Altitude
689.037 km
Speed
7.515 km/s
True Right ascension
20h 49m 45s
True Declination
0° 00' 00"
Sunlit
Object was in full shadow at epoch
Visualization orbit readout
Latitude
Unknown
Longitude
Unknown
Altitude
Unknown
Speed
Unknown
Apparent Right ascension
Unknown
Apparent Declination
Unknown
Sunlit
N/A
Visualization observer readout
Local Sidereal Time
00:50:36
Azimuth
Unknown
Elevation
Unknown
Doppler factor
Unknown
Orbital elements
Apogee altitude
693.986 km
Perigee altitude
682.661 km
Semi-major axis
7,066.46 km
Eccentricity
0.0008
Inclination
98.2288°
RAAN
312.4381°
Arg. of periapsis
23.7902°
True anomaly
336.32986°
Mean anomaly
336.3667°
Eccentric anomaly
336.34828°
Mean motion
3.65376 °/min
Orbital period
98.53 mins
BSTAR
0.000062454
Loading maneuver chart data...
Computing Atmospheric mass density...
Loading historical data...
Loading historical data...
Loading historical data...
Loading historical data...
Loading historical data...
Loading historical data...
Loading historical data...

Documentation

Showing up to 5 results
|